Weather History for Cedar City, UT

Change the Weather History Date:

Tuesday, August 12, 2014

  Actual Average Record
Temperature  
Mean Temperature 68 °F 72 °F  
Max Temperature 80 °F 88 °F 99 °F (1960)
Min Temperature 55 °F 56 °F 42 °F (1985)
Degree Days  
Heating Degree Days 0 0  
Month to date heating degree days 1 0  
Since 1 June heating degree days 28 79  
Since 1 July heating degree days 1 3  
Cooling Degree Days 3 7  
Month to date cooling degree days 62 93  
Year to date cooling degree days 482 446  
Since 1 June cooling degree days 457 438  
Growing Degree Days 16 (Base 50)    
Moisture  
Dew Point 52 °F    
Average Humidity 65    
Maximum Humidity 93    
Minimum Humidity 36    
Precipitation  
Precipitation T in 0.04 in 0.51 in (1987)
Month to date precipitation 0.29 0.48  
Year to date precipitation 4.16 6.89  
Sea Level Pressure  
Sea Level Pressure 30.04 in    
Wind  
Wind Speed 7 mph (SSW)    
Max Wind Speed 25 mph    
Max Gust Speed 36 mph    
Visibility 10 miles    
Events Rain    
T = Trace of Precipitation, MM = Missing Value Source: NWS Daily Summary

Daily Weather History Graph

Daily Weather History Graph

Search for Another Location

Airport:

Trip Planner

Search our weather history database for the weather conditions in past years. The results will help you decide how hot, cold, wet, or windy it might be!

Date:

Astronomy

Aug. 12, 2014 Rise Set
Actual Time 6:45 AM MDT 8:28 PM MDT
Civil Twilight 6:17 AM MDT 8:56 PM MDT
Nautical Twilight 5:43 AM MDT 9:30 PM MDT
Astronomical Twilight 5:07 AM MDT 10:06 PM MDT
Moon 9:42 PM MDT (8/12) 9:04 AM MDT (8/12)
Length of Visible Light 14h 39m
Length of Day
13h 43m
Waning Gibbous, 94% of the Moon is Illuminated
Aug 12
Waning Gibbous
Aug 17
Last Quarter
Aug 25
New
Sep 2
First Quarter
Sep 8
Full

Hourly Weather History & Observations

Time (MDT) Temp. Dew Point Humidity Pressure Visibility Wind Dir Wind Speed Gust Speed Precip Events Conditions
12:53 AM 64.9 °F 54.0 °F 68% 30.07 in 10.0 mi East 3.5 mph - 0.00 in   Overcast
1:53 AM 63.0 °F 54.0 °F 72% 30.05 in 10.0 mi NE 6.9 mph - 0.00 in   Partly Cloudy
3:53 AM 61.0 °F 55.0 °F 81% 30.06 in 10.0 mi SW 3.5 mph - N/A   Clear
4:53 AM 57.9 °F 54.0 °F 87% 30.01 in 10.0 mi NW 6.9 mph - N/A   Clear
6:53 AM 55.9 °F 53.1 °F 90% 30.08 in 10.0 mi Variable 3.5 mph - N/A   Partly Cloudy
7:53 AM 57.9 °F 54.0 °F 87% 30.08 in 10.0 mi Calm Calm - N/A   Clear
8:53 AM 66.9 °F 54.0 °F 63% 30.07 in 10.0 mi Calm Calm - N/A   Partly Cloudy
9:53 AM 73.9 °F 50.0 °F 43% 30.05 in 10.0 mi Calm Calm - N/A   Clear
11:53 AM 75.9 °F 51.1 °F 42% 30.04 in 10.0 mi SW 15.0 mph 25.3 mph N/A   Scattered Clouds
12:53 PM 75.0 °F 50.0 °F 41% 30.07 in 10.0 mi SSW 18.4 mph 25.3 mph N/A   Partly Cloudy
1:53 PM 71.1 °F 51.1 °F 49% 30.10 in 10.0 mi ESE 19.6 mph 35.7 mph N/A   Mostly Cloudy
2:53 PM 71.1 °F 48.0 °F 44% 30.09 in 10.0 mi SSE 12.7 mph 20.7 mph 0.00 in   Overcast
3:53 PM 72.0 °F 48.0 °F 43% 30.05 in 10.0 mi SE 12.7 mph 21.9 mph 0.00 in Rain Light Rain
4:53 PM 73.9 °F 52.0 °F 46% 30.01 in 10.0 mi WSW 10.4 mph - 0.00 in   Partly Cloudy
5:53 PM 77.0 °F 52.0 °F 42% 30.00 in 10.0 mi WSW 12.7 mph - N/A   Clear
6:53 PM 75.0 °F 52.0 °F 44% 29.99 in 10.0 mi SW 9.2 mph - N/A   Clear
7:53 PM 72.0 °F 53.1 °F 51% 30.00 in 10.0 mi SW 5.8 mph - N/A   Clear
8:53 PM 70.0 °F 52.0 °F 53% 29.99 in 10.0 mi SSW 8.1 mph - N/A   Clear
9:53 PM 70.0 °F 48.9 °F 47% 29.99 in 10.0 mi SSW 6.9 mph - N/A   Clear
10:53 PM 66.9 °F 50.0 °F 54% 29.98 in 10.0 mi South 5.8 mph - N/A   Clear